This is the latest recevied weather packets stored in our database for station/object PE1RXF-13. If no packets are shown the sender has not sent any weather packets the latest 10 day(s).
| Time | Temp. | Humidity | Pressure | Rain* | Wind** | Luminosity | Snow |
|---|---|---|---|---|---|---|---|
| 1788268534 | 23.89° C | 58% | 1017.5 hPa | 0 mm | - | 165 W/m² | - |
| 1788267430 | 23.89° C | 61% | 1017.5 hPa | 0 mm | - | 188 W/m² | - |
| 1788266328 | 23.33° C | 63% | 1017.4 hPa | 0 mm | - | 186 W/m² | - |
| 1788265225 | 22.22° C | 73% | 1017.4 hPa | 0 mm | - | 46 W/m² | - |
| 1788264122 | 21.67° C | 70% | 1017.4 hPa | 0 mm | - | 64 W/m² | - |
| 1788263019 | 21.67° C | 68% | 1017.4 hPa | 0 mm | - | 29 W/m² | - |
| 1788261916 | 23.33° C | 71% | 1017.4 hPa | 0 mm | - | 206 W/m² | - |
| 1788260813 | 22.22° C | 74% | 1017.4 hPa | 0 mm | - | 177 W/m² | - |
| 1788259710 | 21.67° C | 76% | 1017.3 hPa | 0 mm | - | 136 W/m² | - |
| 1788258607 | 22.78° C | 74% | 1017.3 hPa | 0 mm | - | 200 W/m² | - |
| 1788257504 | 21.67° C | 88% | 1017.3 hPa | 0 mm | - | 104 W/m² | - |
| 1788256401 | 19.44° C | 97% | 1017.3 hPa | 0 mm | - | 84 W/m² | - |
| 1788255297 | 18.33° C | 97% | 1017.2 hPa | 0 mm | - | 64 W/m² | - |
| 1788254195 | 18.33° C | 99% | 1016.9 hPa | 0 mm | - | 54 W/m² | - |
| 1788253092 | 18.89° C | 96% | 1016.8 hPa | 0 mm | - | 50 W/m² | - |
| 1788251989 | 20° C | 94% | 1016.6 hPa | 0 mm | - | 82 W/m² | - |
| 1788250885 | 20° C | 92% | 1016.4 hPa | 0 mm | - | 72 W/m² | - |
| 1788248680 | 20.56° C | 97% | 1016 hPa | 0 mm | - | 77 W/m² | - |
| 1788247576 | 19.44° C | 99% | 1015.9 hPa | 0 mm | - | 79 W/m² | - |
| 1788246474 | 18.89° C | 99% | 1015.9 hPa | 0 mm | - | 67 W/m² | - |
| 1788245371 | 17.22° C | 99% | 1015.8 hPa | 0 mm | - | 57 W/m² | - |
| 1788244268 | 16.11° C | 99% | 1015.6 hPa | 0 mm | - | 30 W/m² | - |
| 1788243164 | 15° C | 99% | 1015.4 hPa | 0 mm | - | 17 W/m² | - |
| 1788242062 | 15° C | 99% | 1015.2 hPa | 0 mm | - | 12 W/m² | - |
| 1788240959 | 14.44° C | 99% | 1015.2 hPa | 0 mm | - | 16 W/m² | - |
* Rain latest hour (hover to see other rain measurements)
** Current wind speed in m/s (hover to see current wind gust speed)